Regional Weather Roundup
Issued by NWS

Home | Current Version | Previous Version | Text Only | Print | Product List | Glossary On
Versions: 1 2 3 4 5 6 7 8 9 10 11 12 13 14 15 16 17 18 19 20 21 22 23 24 25 26 27 28 29 30 31 32 33 34 35 36 37 38 39 40 41 42 43 44 45 46 47 48 49 50
000
ASUS44 KOUN 261300
RWROK

WEATHER ROUNDUP FOR OKLAHOMA
NATIONAL WEATHER SERVICE NORMAN OK
800 AM CDT THU MAY 26 2016

NOTE: "FAIR" INDICATES FEW OR NO CLOUDS BELOW 12,000 FEET WITH NO
      SIGNIFICANT WEATHER AND/OR OBSTRUCTIONS TO VISIBILITY.

OKZ001>007-009>012-014-015-017-261400-
NORTHWEST OKLAHOMA AND THE PANHANDLE

CITY           SKY/WX    TMP DP  RH WIND       PRES   REMARKS
GAGE           MOSUNNY   73  69  87 S22G28    29.81R
GUYMON         PTSUNNY   61  37  41 VRB7      29.81F
ENID/WOODRING  PTSUNNY   79  73  83 S15       29.79F HAZE
$$

OKZ016-021>023-033>039-044-045-261400-
SOUTHWEST OKLAHOMA

CITY           SKY/WX    TMP DP  RH WIND       PRES   REMARKS
LAWTON/REGL    CLOUDY    77  73  87 S14       29.85F
LAWTON/FT SILL PTSUNNY   77  77 100 S13G18    29.85R
FREDERICK      CLOUDY    77  75  93 SE15      29.82S FOG
CLINTON        CLOUDY    76  72  87 S22       29.85S FOG
HOBART         CLOUDY    77  74  90 S15       29.85S FOG
ALTUS AFB      CLOUDY    75  73  94 SE13      29.83S FOG
$$

OKZ018>020-024>031-261400-
CENTRAL OKLAHOMA

CITY           SKY/WX    TMP DP  RH WIND       PRES   REMARKS
OKLAHOMA CITY  CLOUDY    76  74  93 S16       29.85F
OKC/WILEY POST MOSUNNY   78  73  84 S20G25    29.84F HAZE
OKC/TINKER AFB CLOUDY    76  72  88 S12       29.85F
STILLWATER     PTSUNNY   77  73  87 S13       29.83F FOG
GUTHRIE        SUNNY     79  73  82 S13       29.83F HAZE
$$

OKZ008-013-054>072-261400-
NORTHEAST OKLAHOMA

CITY           SKY/WX    TMP DP  RH WIND       PRES   REMARKS
TULSA          MOSUNNY   79  74  84 S13       29.86F
TULSA/JONES    CLOUDY    79  72  79 S9        29.87F
PONCA CITY     MOSUNNY   77  73  87 S13G20    29.82S FOG
BARTLESVILLE   CLOUDY    77  72  84 S8        29.88S
MUSKOGEE       LGT RAIN  77  73  87 S6        29.93S
$$

OKZ032-040>043-046>053-073>077-261400-
SOUTH CENTRAL/SOUTHEAST OKLAHOMA

CITY           SKY/WX    TMP DP  RH WIND       PRES   REMARKS
MCALESTER      CLOUDY    78  72  81 S8G20     29.92F
$$




USA.gov is the U.S. government's official web portal to all federal, state and local government web resources and services.